Weather History for KHNZ - May, 2014

Change the Weather History Date:

Tuesday, May 6, 2014

  Actual Average (KTDF) Record (KTDF)
Temperature  
Mean Temperature 62 °F -  
Max Temperature 73 °F 75 °F 88 °F (1969)
Min Temperature 52 °F 48 °F 37 °F (1968)
Degree Days  
Heating Degree Days 2    
Growing Degree Days 12 (Base 50)    
Moisture  
Dew Point 54 °F    
Average Humidity 72    
Maximum Humidity 85    
Minimum Humidity 54    
Precipitation  
Precipitation 0.00 in - - ()
Sea Level Pressure  
Sea Level Pressure 29.94 in    
Wind  
Wind Speed 3 mph (NE)    
Max Wind Speed 8 mph    
Max Gust Speed -    
Visibility 10 miles    
Events      
Averages and records for this station are not official NWS values.
T = Trace of Precipitation, MM = Missing Value Source: NWS Daily Summary

Daily Weather History Graph

Daily Weather History Graph

Search for Another Location

Airport or City:

Trip Planner

Search our weather history database for the weather conditions in past years. The results will help you decide how hot, cold, wet, or windy it might be!

Date:

Astronomy

May. 06, 2014 Rise Set
Actual Time 6:15 AM EDT 8:06 PM EDT
Civil Twilight 5:47 AM EDT 8:34 PM EDT
Nautical Twilight 5:13 AM EDT 9:08 PM EDT
Astronomical Twilight 4:37 AM EDT 9:44 PM EDT
Moon 12:27 PM EDT (5/6) 1:26 AM EDT (5/6)
Length of Visible Light 14h 46m
Length of Day
13h 50m
Waxing Crescent, 46% of the Moon is Illuminated
May 6
Waxing Crescent
May 6
First Quarter
May 14
Full
May 21
Last Quarter
May 28
New

Hourly Weather History & Observations

Time (EDT) Temp. Dew Point Humidity Pressure Visibility Wind Dir Wind Speed Gust Speed Precip Events Conditions
12:15 AM 52.9 °F 48.4 °F 85% 29.92 in 10.0 mi NE 5.8 mph - N/A   Clear
12:35 AM 53.6 °F 48.4 °F 82% 29.93 in 10.0 mi NE 6.9 mph - N/A   Mostly Cloudy
1:15 AM 53.8 °F 47.7 °F 80% 29.91 in 10.0 mi ENE 6.9 mph - N/A   Overcast
1:35 AM 54.0 °F 47.5 °F 79% 29.90 in 10.0 mi ENE 4.6 mph - N/A   Overcast
1:55 AM 54.1 °F 47.8 °F 79% 29.90 in 10.0 mi Calm Calm - N/A   Overcast
2:15 AM 54.1 °F 48.0 °F 80% 29.90 in 10.0 mi NNE 3.5 mph - N/A   Overcast
2:35 AM 54.1 °F 48.2 °F 80% 29.89 in 10.0 mi NE 3.5 mph - N/A   Overcast
2:55 AM 54.5 °F 48.2 °F 79% 29.89 in 10.0 mi NNE 4.6 mph - N/A   Overcast
3:15 AM 54.5 °F 48.2 °F 79% 29.88 in 10.0 mi NE 3.5 mph - N/A   Overcast
3:55 AM 54.7 °F 48.7 °F 80% 29.89 in 10.0 mi NNE 3.5 mph - N/A   Overcast
4:15 AM 54.9 °F 48.9 °F 80% 29.89 in 10.0 mi Calm Calm - N/A   Overcast
4:35 AM 54.9 °F 49.1 °F 81% 29.89 in 10.0 mi Calm Calm - N/A   Overcast
4:55 AM 54.9 °F 49.1 °F 81% 29.89 in 10.0 mi Calm Calm - N/A   Overcast
5:15 AM 55.0 °F 49.3 °F 81% 29.88 in 10.0 mi Calm Calm - N/A   Overcast
5:35 AM 55.0 °F 49.5 °F 81% 29.89 in 10.0 mi Calm Calm - N/A   Overcast
5:55 AM 55.0 °F 50.0 °F 83% 29.89 in 10.0 mi Calm Calm - N/A   Overcast
6:15 AM 54.9 °F 49.5 °F 82% 29.90 in 10.0 mi Calm Calm - N/A   Overcast
6:35 AM 54.7 °F 49.3 °F 82% 29.91 in 10.0 mi North 3.5 mph - N/A   Overcast
7:55 AM 56.3 °F 49.8 °F 79% 29.93 in 10.0 mi Calm Calm - N/A   Overcast
8:15 AM 56.8 °F 50.4 °F 79% 29.94 in 10.0 mi Calm Calm - N/A   Overcast
8:35 AM 57.2 °F 50.9 °F 79% 29.94 in 10.0 mi NNE 3.5 mph - N/A   Overcast
8:55 AM 57.2 °F 51.6 °F 82% 29.95 in 10.0 mi Calm Calm - N/A   Overcast
9:15 AM 58.3 °F 52.5 °F 81% 29.96 in 10.0 mi North 3.5 mph - N/A   Overcast
9:55 AM 59.4 °F 53.1 °F 80% 29.96 in 10.0 mi Calm Calm - N/A   Overcast
10:15 AM 59.9 °F 53.1 °F 78% 29.96 in 10.0 mi Calm Calm - N/A   Overcast
10:35 AM 61.3 °F 53.8 °F 76% 29.96 in 10.0 mi Calm Calm - N/A   Scattered Clouds
10:55 AM 62.8 °F 54.3 °F 74% 29.97 in 10.0 mi Calm Calm - N/A   Clear
11:15 AM 63.9 °F 54.5 °F 72% 29.97 in 10.0 mi West 3.5 mph - N/A   Clear
11:35 AM 65.8 °F 55.0 °F 68% 29.97 in 10.0 mi NW 3.5 mph - N/A   Clear
11:55 AM 66.0 °F 54.0 °F 65% 29.97 in 10.0 mi NW 4.6 mph - N/A   Clear
12:15 PM 67.3 °F 55.0 °F 65% 29.96 in 10.0 mi NW 3.5 mph - N/A   Clear
12:35 PM 67.6 °F 54.9 °F 64% 29.96 in 10.0 mi Calm Calm - N/A   Clear
12:55 PM 68.7 °F 55.8 °F 63% 29.95 in 10.0 mi Calm Calm - N/A   Clear
1:15 PM 69.1 °F 55.6 °F 62% 29.95 in 10.0 mi Calm Calm - N/A   Clear
1:35 PM 69.8 °F 55.0 °F 59% 29.95 in 10.0 mi ENE 3.5 mph - N/A   Clear
1:55 PM 70.5 °F 55.2 °F 58% 29.94 in 10.0 mi NNW 3.5 mph - N/A   Clear
2:15 PM 71.4 °F 55.9 °F 58% 29.94 in 10.0 mi Calm Calm - N/A   Clear
2:35 PM 73.4 °F 56.3 °F 55% 29.94 in 10.0 mi North 3.5 mph - N/A   Clear
2:55 PM 73.6 °F 56.1 °F 54% 29.94 in 10.0 mi NNE 3.5 mph - N/A   Clear
3:15 PM 73.6 °F 55.9 °F 54% 29.93 in 10.0 mi North 5.8 mph - N/A   Clear
3:35 PM 73.2 °F 55.8 °F 54% 29.93 in 10.0 mi Calm Calm - N/A   Clear
4:15 PM 72.1 °F 57.6 °F 60% 29.93 in 10.0 mi NE 5.8 mph - N/A   Clear
4:35 PM 72.3 °F 57.4 °F 59% 29.93 in 10.0 mi ENE 6.9 mph - N/A   Clear
4:55 PM 72.3 °F 57.6 °F 60% 29.93 in 10.0 mi East 6.9 mph - N/A   Clear
5:15 PM 73.0 °F 57.0 °F 57% 29.93 in 10.0 mi ENE 4.6 mph - N/A   Clear
5:35 PM 73.0 °F 56.7 °F 56% 29.93 in 10.0 mi East 5.8 mph - N/A   Clear
5:55 PM 72.9 °F 56.8 °F 57% 29.93 in 10.0 mi East 5.8 mph - N/A   Clear
6:15 PM 73.0 °F 57.0 °F 57% 29.93 in 10.0 mi ENE 5.8 mph - N/A   Clear
6:35 PM 72.7 °F 56.5 °F 57% 29.93 in 10.0 mi NE 4.6 mph - N/A   Clear
6:55 PM 72.3 °F 56.3 °F 57% 29.93 in 10.0 mi NE 4.6 mph - N/A   Clear
7:15 PM 71.6 °F 56.7 °F 59% 29.94 in 10.0 mi East 8.1 mph - N/A   Clear
7:35 PM 70.2 °F 56.5 °F 62% 29.94 in 10.0 mi ENE 6.9 mph - N/A   Clear
7:55 PM 68.7 °F 56.7 °F 65% 29.95 in 10.0 mi ENE 5.8 mph - N/A   Clear
8:15 PM 66.4 °F 56.5 °F 70% 29.96 in 10.0 mi ENE 4.6 mph - N/A   Clear
8:35 PM 65.3 °F 56.7 °F 74% 29.97 in 10.0 mi ENE 4.6 mph - N/A   Clear
8:55 PM 64.9 °F 56.8 °F 75% 29.97 in 10.0 mi NE 3.5 mph - N/A   Clear
9:15 PM 64.4 °F 57.2 °F 77% 29.98 in 10.0 mi NE 3.5 mph - N/A   Clear
9:35 PM 62.8 °F 57.0 °F 81% 29.99 in 10.0 mi ENE 3.5 mph - N/A   Clear
9:55 PM 62.2 °F 57.0 °F 83% 30.00 in 10.0 mi ENE 4.6 mph - N/A   Clear
10:15 PM 61.9 °F 56.8 °F 84% 30.00 in 10.0 mi East 3.5 mph - N/A   Scattered Clouds
10:35 PM 61.9 °F 57.2 °F 85% 30.00 in 10.0 mi East 4.6 mph - N/A   Scattered Clouds
10:55 PM 62.2 °F 57.0 °F 83% 30.01 in 10.0 mi ENE 5.8 mph - N/A   Mostly Cloudy
11:15 PM 62.2 °F 56.7 °F 82% 30.01 in 10.0 mi NE 3.5 mph - N/A   Overcast
11:55 PM 62.2 °F 56.7 °F 82% 30.03 in 10.0 mi NE 4.6 mph - N/A   Overcast